Time,TemperatureF,DewpointF,PressureIn,WindDirection,WindDirectionDegrees,WindSpeedMPH,WindSpeedGustMPH,Humidity,HourlyPrecipIn,Conditions,Clouds,dailyrainin,SoftwareType,DateUTC
2013-05-05 00:01:00,45.0,36.0,-100.00,North,2,9.0,13.0,70,0.00,,,0.01,,2013-05-05 06:01:00,
2013-05-05 00:11:00,45.0,36.0,-100.00,North,2,9.0,13.0,70,0.00,,,0.01,,2013-05-05 06:11:00,
2013-05-05 00:42:00,43.0,35.0,-100.00,NNW,332,7.0,11.0,76,0.00,,,0.01,,2013-05-05 06:42:00,
2013-05-05 00:52:00,43.0,35.0,-100.00,NNW,332,7.0,11.0,76,0.00,,,0.01,,2013-05-05 06:52:00,
2013-05-05 01:01:00,43.0,35.0,-100.00,NNW,332,7.0,11.0,76,0.00,,,0.01,,2013-05-05 07:01:00,
2013-05-05 01:11:00,43.0,35.0,-100.00,NNW,332,7.0,11.0,76,0.00,,,0.01,,2013-05-05 07:11:00,
2013-05-05 01:42:00,41.0,35.0,-100.00,NW,318,8.0,13.0,79,0.00,,,0.00,,2013-05-05 07:42:00,
2013-05-05 01:52:00,41.0,35.0,-100.00,NW,318,8.0,13.0,79,0.00,,,0.00,,2013-05-05 07:52:00,
2013-05-05 02:02:00,41.0,35.0,-100.00,NW,318,8.0,13.0,79,0.00,,,0.00,,2013-05-05 08:02:00,
2013-05-05 02:11:00,41.0,35.0,-100.00,NW,318,8.0,13.0,79,0.00,,,0.00,,2013-05-05 08:11:00,
2013-05-05 02:42:00,37.0,34.0,-100.00,SE,133,2.0,4.0,88,0.00,,,0.00,,2013-05-05 08:42:00,
2013-05-05 02:53:00,37.0,34.0,-100.00,SE,133,2.0,4.0,88,0.00,,,0.00,,2013-05-05 08:53:00,
2013-05-05 03:01:00,37.0,34.0,-100.00,SE,133,2.0,4.0,88,0.00,,,0.00,,2013-05-05 09:01:00,
2013-05-05 03:11:00,37.0,34.0,-100.00,SE,133,2.0,4.0,88,0.00,,,0.00,,2013-05-05 09:11:00,
2013-05-05 03:42:00,34.0,32.0,-100.00,SSE,157,1.0,3.0,91,0.00,,,-99.99,,2013-05-05 09:42:00,
2013-05-05 03:52:00,34.0,32.0,-100.00,SSE,157,1.0,3.0,91,0.00,,,-99.99,,2013-05-05 09:52:00,
2013-05-05 04:02:00,34.0,32.0,-100.00,SSE,157,1.0,3.0,91,0.00,,,-99.99,,2013-05-05 10:02:00,
2013-05-05 04:12:00,34.0,32.0,-100.00,SSE,157,1.0,3.0,91,0.00,,,-99.99,,2013-05-05 10:12:00,
2013-05-05 04:42:00,33.0,31.0,-100.00,WSW,250,3.0,6.0,92,0.00,,,0.00,,2013-05-05 10:42:00,
2013-05-05 04:53:00,33.0,31.0,-100.00,WSW,250,3.0,6.0,92,0.00,,,0.00,,2013-05-05 10:53:00,
2013-05-05 05:01:00,33.0,31.0,-100.00,WSW,250,3.0,6.0,92,0.00,,,0.00,,2013-05-05 11:01:00,
2013-05-05 05:11:00,33.0,31.0,-100.00,WSW,250,3.0,6.0,92,0.00,,,0.00,,2013-05-05 11:11:00,
2013-05-05 05:42:00,29.0,28.0,-100.00,SSW,205,4.0,6.0,96,0.00,,,0.00,,2013-05-05 11:42:00,
2013-05-05 05:52:00,29.0,28.0,-100.00,SSW,205,4.0,6.0,96,0.00,,,0.00,,2013-05-05 11:52:00,
2013-05-05 06:01:00,29.0,28.0,-100.00,SSW,205,4.0,6.0,96,0.00,,,0.00,,2013-05-05 12:01:00,
2013-05-05 06:11:00,29.0,28.0,-100.00,SSW,205,4.0,6.0,96,0.00,,,0.00,,2013-05-05 12:11:00,
2013-05-05 06:42:00,25.0,23.0,-100.00,SSW,196,5.0,7.0,93,0.00,,,0.00,,2013-05-05 12:42:00,
2013-05-05 06:52:00,25.0,23.0,-100.00,SSW,196,5.0,7.0,93,0.00,,,0.00,,2013-05-05 12:52:00,
2013-05-05 07:42:00,32.0,30.0,-100.00,SW,216,3.0,4.0,95,0.00,,,0.00,,2013-05-05 13:42:00,
2013-05-05 07:52:00,32.0,30.0,-100.00,SW,216,3.0,4.0,95,0.00,,,0.00,,2013-05-05 13:52:00,
2013-05-05 08:01:00,32.0,30.0,-100.00,SW,216,3.0,4.0,95,0.00,,,0.00,,2013-05-05 14:01:00,
2013-05-05 08:11:00,32.0,30.0,-100.00,SW,216,3.0,4.0,95,0.00,,,0.00,,2013-05-05 14:11:00,
2013-05-05 08:42:00,38.0,35.0,-100.00,South,177,5.0,7.0,86,0.00,,,0.00,,2013-05-05 14:42:00,
2013-05-05 08:52:00,38.0,35.0,-100.00,South,177,5.0,7.0,86,0.00,,,0.00,,2013-05-05 14:52:00,
2013-05-05 09:01:00,38.0,35.0,-100.00,South,177,5.0,7.0,86,0.00,,,0.00,,2013-05-05 15:01:00,
2013-05-05 09:11:00,38.0,35.0,-100.00,South,177,5.0,7.0,86,0.00,,,0.00,,2013-05-05 15:11:00,
2013-05-05 09:43:00,45.0,35.0,-100.00,South,172,4.0,7.0,70,0.00,,,0.00,,2013-05-05 15:43:00,
2013-05-05 09:53:00,45.0,35.0,-100.00,South,172,4.0,7.0,70,0.00,,,0.00,,2013-05-05 15:53:00,
2013-05-05 10:03:00,45.0,35.0,-100.00,South,172,4.0,7.0,70,0.00,,,0.00,,2013-05-05 16:03:00,
2013-05-05 10:12:00,45.0,35.0,-100.00,South,172,4.0,7.0,70,0.00,,,0.00,,2013-05-05 16:12:00,
2013-05-05 10:42:00,50.0,35.0,-100.00,ENE,67,2.0,7.0,57,0.00,,,0.00,,2013-05-05 16:42:00,
2013-05-05 10:53:00,50.0,35.0,-100.00,ENE,67,2.0,7.0,57,0.00,,,0.00,,2013-05-05 16:53:00,
2013-05-05 11:02:00,50.0,35.0,-100.00,ENE,67,2.0,7.0,57,0.00,,,0.00,,2013-05-05 17:02:00,
2013-05-05 11:12:00,50.0,35.0,-100.00,ENE,67,2.0,7.0,57,0.00,,,0.00,,2013-05-05 17:12:00,
2013-05-05 11:42:00,53.0,32.0,-100.00,ENE,76,4.0,9.0,45,0.00,,,0.01,,2013-05-05 17:42:00,
2013-05-05 11:52:00,53.0,32.0,-100.00,ENE,76,4.0,9.0,45,0.00,,,0.01,,2013-05-05 17:52:00,
2013-05-05 12:01:00,53.0,32.0,-100.00,ENE,76,4.0,9.0,45,0.00,,,0.01,,2013-05-05 18:01:00,
2013-05-05 12:11:00,53.0,32.0,-100.00,ENE,76,4.0,9.0,45,0.00,,,0.01,,2013-05-05 18:11:00,
2013-05-05 12:42:00,57.0,32.0,-100.00,North,10,5.0,15.0,39,0.00,,,0.01,,2013-05-05 18:42:00,
2013-05-05 12:52:00,57.0,32.0,-100.00,North,10,5.0,15.0,39,0.00,,,0.01,,2013-05-05 18:52:00,
2013-05-05 13:01:00,57.0,32.0,-100.00,North,10,5.0,15.0,39,0.00,,,0.01,,2013-05-05 19:01:00,
2013-05-05 13:11:00,57.0,32.0,-100.00,North,10,5.0,15.0,39,0.00,,,0.01,,2013-05-05 19:11:00,
2013-05-05 13:41:00,59.0,32.0,-100.00,NNW,346,6.0,13.0,36,0.00,,,0.01,,2013-05-05 19:41:00,
2013-05-05 13:52:00,59.0,32.0,-100.00,NNW,346,6.0,13.0,36,0.00,,,0.01,,2013-05-05 19:52:00,
2013-05-05 14:01:00,59.0,32.0,-100.00,NNW,346,6.0,13.0,36,0.00,,,0.01,,2013-05-05 20:01:00,
2013-05-05 14:11:00,59.0,32.0,-100.00,NNW,346,6.0,13.0,36,0.00,,,0.01,,2013-05-05 20:11:00,
2013-05-05 14:41:00,62.0,32.0,-100.00,NNE,15,6.0,16.0,32,-99.99,,,-99.99,,2013-05-05 20:41:00,
2013-05-05 14:52:00,62.0,32.0,-100.00,NNE,15,6.0,16.0,32,-99.99,,,-99.99,,2013-05-05 20:52:00,
2013-05-05 15:01:00,62.0,32.0,-100.00,NNE,15,6.0,16.0,32,-99.99,,,-99.99,,2013-05-05 21:01:00,
2013-05-05 15:11:00,62.0,32.0,-100.00,NNE,15,6.0,16.0,32,-99.99,,,-99.99,,2013-05-05 21:11:00,
2013-05-05 15:42:00,64.0,33.0,-100.00,North,355,8.0,17.0,31,0.00,,,-99.99,,2013-05-05 21:42:00,
2013-05-05 15:53:00,64.0,33.0,-100.00,North,355,8.0,17.0,31,0.00,,,-99.99,,2013-05-05 21:53:00,
2013-05-05 16:02:00,64.0,33.0,-100.00,North,355,8.0,17.0,31,0.00,,,-99.99,,2013-05-05 22:02:00,
2013-05-05 16:12:00,64.0,33.0,-100.00,North,355,8.0,17.0,31,0.00,,,-99.99,,2013-05-05 22:12:00,
2013-05-05 16:42:00,65.0,32.0,-100.00,NNW,334,12.0,19.0,29,0.00,,,-99.99,,2013-05-05 22:42:00,
2013-05-05 16:52:00,65.0,32.0,-100.00,NNW,334,12.0,19.0,29,0.00,,,-99.99,,2013-05-05 22:52:00,
2013-05-05 17:02:00,65.0,32.0,-100.00,NNW,334,12.0,19.0,29,0.00,,,-99.99,,2013-05-05 23:02:00,
2013-05-05 17:11:00,65.0,32.0,-100.00,NNW,334,12.0,19.0,29,0.00,,,-99.99,,2013-05-05 23:11:00,
2013-05-05 17:42:00,66.0,29.0,-100.00,North,349,14.0,21.0,25,0.00,,,0.00,,2013-05-05 23:42:00,
2013-05-05 17:52:00,66.0,29.0,-100.00,North,349,14.0,21.0,25,0.00,,,0.00,,2013-05-05 23:52:00,
2013-05-05 18:01:00,66.0,29.0,-100.00,North,349,14.0,21.0,25,0.00,,,0.00,,2013-05-06 00:01:00,
2013-05-05 18:11:00,66.0,29.0,-100.00,North,349,14.0,21.0,25,0.00,,,0.00,,2013-05-06 00:11:00,
2013-05-05 18:41:00,66.0,27.0,-100.00,North,350,9.0,16.0,23,0.00,,,0.00,,2013-05-06 00:41:00,
2013-05-05 18:51:00,66.0,27.0,-100.00,North,350,9.0,16.0,23,0.00,,,0.00,,2013-05-06 00:51:00,
2013-05-05 19:01:00,66.0,27.0,-100.00,North,350,9.0,16.0,23,0.00,,,0.00,,2013-05-06 01:01:00,
2013-05-05 19:11:00,66.0,27.0,-100.00,North,350,9.0,16.0,23,0.00,,,0.00,,2013-05-06 01:11:00,
2013-05-05 19:41:00,65.0,26.0,-100.00,SE,142,7.0,11.0,23,0.00,,,0.00,,2013-05-06 01:41:00,
2013-05-05 19:52:00,65.0,26.0,-100.00,SE,142,7.0,11.0,23,0.00,,,0.00,,2013-05-06 01:52:00,
2013-05-05 20:01:00,65.0,26.0,-100.00,SE,142,7.0,11.0,23,0.00,,,0.00,,2013-05-06 02:01:00,
2013-05-05 20:11:00,65.0,26.0,-100.00,SE,142,7.0,11.0,23,0.00,,,0.00,,2013-05-06 02:11:00,
2013-05-05 20:42:00,61.0,27.0,-100.00,SE,129,4.0,7.0,27,0.00,,,0.00,,2013-05-06 02:42:00,
2013-05-05 20:52:00,61.0,27.0,-100.00,SE,129,4.0,7.0,27,0.00,,,0.00,,2013-05-06 02:52:00,
2013-05-05 21:01:00,61.0,27.0,-100.00,SE,129,4.0,7.0,27,0.00,,,0.00,,2013-05-06 03:01:00,
2013-05-05 21:11:00,61.0,27.0,-100.00,SE,129,4.0,7.0,27,0.00,,,0.00,,2013-05-06 03:11:00,
2013-05-05 21:42:00,54.0,30.0,-100.00,NW,322,5.0,10.0,40,0.00,,,-99.99,,2013-05-06 03:42:00,
2013-05-05 21:52:00,54.0,30.0,-100.00,NW,322,5.0,10.0,40,0.00,,,-99.99,,2013-05-06 03:52:00,
2013-05-05 22:02:00,54.0,30.0,-100.00,NW,322,5.0,10.0,40,0.00,,,-99.99,,2013-05-06 04:02:00,
2013-05-05 22:12:00,54.0,30.0,-100.00,NW,322,5.0,10.0,40,0.00,,,-99.99,,2013-05-06 04:12:00,
2013-05-05 22:42:00,50.0,30.0,-100.00,NW,308,8.0,11.0,45,0.00,,,-99.99,,2013-05-06 04:42:00,
2013-05-05 22:53:00,50.0,30.0,-100.00,NW,308,8.0,11.0,45,0.00,,,-99.99,,2013-05-06 04:53:00,
2013-05-05 23:02:00,50.0,30.0,-100.00,NW,308,8.0,11.0,45,0.00,,,-99.99,,2013-05-06 05:02:00,
2013-05-05 23:12:00,50.0,30.0,-100.00,NW,308,8.0,11.0,45,0.00,,,-99.99,,2013-05-06 05:12:00,
2013-05-05 23:42:00,48.0,30.0,-100.00,NW,309,8.0,11.0,49,0.00,,,-99.99,,2013-05-06 05:42:00,
2013-05-05 23:52:00,48.0,30.0,-100.00,NW,309,8.0,11.0,49,0.00,,,-99.99,,2013-05-06 05:52:00,